Simultaneous Nadir Overpasses (SNOs) Predictions

Prediction of SNOs between AQUA and NOAA-19 Satellite Orbit:

Table of predicted SNOs for the next 14.0 days since TLE Epoch: 6/22/2018
Index Date (AQUA) Time (AQUA) Lat,Lon (AQUA) SZA (AQUA ) Date (NOAA-19) Time (NOAA-19) Lat,Lon (NOAA-19) SZA (NOAA-19 ) Distance(km) Time Diff (sec)
1 06/23/2018 14:32:04 80.77, -75.94 59.46 06/23/2018 14:31:26 80.79, -76.08 59.51 3.18 38
2 06/23/2018 15:21:31 -80.78, 91.59 120.52 06/23/2018 15:22:29 -80.80, 91.53 120.53 2.33 58
3 06/25/2018 20:05:49 -80.79, 20.37 120.44 06/25/2018 20:05:05 -80.78, 20.34 120.42 1.24 44
4 06/25/2018 20:55:15 80.78,-171.90 59.55 06/25/2018 20:56:01 80.80,-171.84 59.54 1.73 46
5 06/28/2018 01:39:32 80.77, 117.16 59.63 06/28/2018 01:38:37 80.78, 117.10 59.67 1.59 55
6 06/28/2018 02:28:59 -80.77, -75.23 120.37 06/28/2018 02:29:39 -80.79, -75.26 120.37 2.19 40
7 06/30/2018 07:13:17 -80.79,-146.49 120.21 06/30/2018 07:12:15 -80.77,-146.53 120.19 1.76 62
8 06/30/2018 08:02:43 80.79, 21.16 59.79 06/30/2018 08:03:12 80.79, 21.29 59.77 2.29 29
9 07/02/2018 12:47:00 80.78, -49.82 59.94 07/02/2018 12:45:48 80.78, -49.82 59.97 0.64 72
10 07/02/2018 13:36:27 -80.78, 117.86 120.07 07/02/2018 13:36:49 -80.79, 117.81 120.07 1.34 22




NCC Satellite Simultaneous Nadir Overpasses (SNOs) Prediction Service
